This is the latest recevied weather packets stored in our database for station/object AB1AU. If no packets are shown the sender has not sent any weather packets the latest 10 day(s).
| Time | Temp. | Humidity | Pressure | Rain* | Wind** | Luminosity | Snow |
|---|---|---|---|---|---|---|---|
| 1777735863 | 6.67° C | 79% | 1014.9 hPa | 0 mm | - | 78 W/m² | - |
| 1777735560 | 6.67° C | 79% | 1014.8 hPa | 0 mm | - | 78 W/m² | - |
| 1777735257 | 6.67° C | 77% | 1014.8 hPa | 0 mm | - | 51 W/m² | - |
| 1777734954 | 7.22° C | 76% | 1015 hPa | 0 mm | - | 74 W/m² | - |
| 1777734652 | 7.22° C | 76% | 1015 hPa | 0 mm | - | 84 W/m² | - |
| 1777734349 | 7.22° C | 76% | 1015.3 hPa | 0 mm | - | 98 W/m² | - |
| 1777734045 | 7.22° C | 76% | 1015.3 hPa | 0 mm | - | 98 W/m² | - |
| 1777733741 | 7.22° C | 76% | 1015.5 hPa | 0 mm | - | 129 W/m² | - |
| 1777733438 | 7.22° C | 78% | 1015.3 hPa | 0 mm | - | 147 W/m² | - |
| 1777733134 | 7.22° C | 78% | 1015.6 hPa | 0 mm | - | 102 W/m² | - |
| 1777732831 | 7.22° C | 79% | 1015.6 hPa | 0 mm | - | 114 W/m² | - |
| 1777732528 | 7.22° C | 78% | 1015.6 hPa | 0 mm | - | 143 W/m² | - |
| 1777732226 | 6.67° C | 77% | 1015.6 hPa | 0 mm | - | 126 W/m² | - |
| 1777731923 | 6.67° C | 78% | 1015.7 hPa | 0 mm | - | 109 W/m² | - |
| 1777731620 | 7.22° C | 79% | 1015.6 hPa | 0 mm | - | 79 W/m² | - |
| 1777731317 | 7.22° C | 81% | 1015.5 hPa | 0 mm | - | 79 W/m² | - |
| 1777731015 | 7.22° C | 81% | 1015.5 hPa | 0 mm | - | 74 W/m² | - |
| 1777730713 | 7.22° C | 81% | 1015.5 hPa | 0 mm | - | 120 W/m² | - |
| 1777730409 | 7.22° C | 80% | 1015.6 hPa | 0 mm | - | 123 W/m² | - |
| 1777730104 | 7.78° C | 78% | 1015.5 hPa | 0 mm | - | 112 W/m² | - |
| 1777729801 | 7.22° C | 78% | 1015.3 hPa | 0 mm | - | 116 W/m² | - |
| 1777729498 | 7.22° C | 79% | 1015.3 hPa | 0 mm | - | 124 W/m² | - |
| 1777729195 | 7.22° C | 79% | 1015.5 hPa | 0 mm | - | 124 W/m² | - |
| 1777728891 | 7.22° C | 80% | 1015.6 hPa | 0 mm | - | 98 W/m² | - |
| 1777728588 | 6.67° C | 82% | 1015.5 hPa | 0 mm | - | 115 W/m² | - |
* Rain latest hour (hover to see other rain measurements)
** Current wind speed in m/s (hover to see current wind gust speed)